Location: Los Gatos B&B
(42.6926°N, 77.0646°W)
Time: 17:26:23
(UTC-04:00)

Amateur Radio Satellites - All Passes

Search period start: 31 July 2015 16:56
Search period end: 01 August 2015 16:56
Location: Los Gatos B&B, 42.6926°N, 77.0646°W

Satellite Date Start Highest point End Downlink Frequencies (MHz)
Time Altitude Azimuth
MOZHAYETS 4 31 Jul 16:57:00 17:00:55 27° 94° (E) 17:04:53
Cosmos 2504 31 Jul 17:02:14 17:05:36 12° 284° (WNW) 17:08:21 435.465 / 435.565
CUTE-I 31 Jul 17:03:06 17:05:46 14° 60° (ENE) 17:08:39 437.470
SO-50 31 Jul 17:06:45 17:09:52 17° 35° (NE) 17:13:04 436.795
JAS-2 31 Jul 17:09:00 17:13:22 19° 275° (W) 17:17:49 435.910
GONETS M04 31 Jul 17:12:27 17:20:46 48° 73° (ENE) 17:29:11
STARS 31 Jul 17:23:22 17:27:22 33° 290° (WNW) 17:31:20 437.465
DANDE 31 Jul 17:25:41 17:27:51 14° 265° (W) 17:30:05 436.750
Cosmos 2499 31 Jul 17:29:35 17:34:29 17° 57° (ENE) 17:39:57 435.465 / 435.565
Cubesat XI-IV 31 Jul 17:44:31 17:49:11 32° 67° (ENE) 17:53:57 437.490
KKS-1 31 Jul 17:50:04 17:52:09 13° 298° (WNW) 17:54:03 437.445
AO-7 31 Jul 18:05:58 18:11:42 19° 272° (W) 18:16:57 29.400- 29.500
PCSat 31 Jul 18:11:28 18:16:32 39° 51° (NE) 18:21:36 145.827
VERMONT LUNAR 31 Jul 18:18:33 18:19:53 12° 150° (SSE) 18:21:17 437.305
MOZHAYETS 4 31 Jul 18:34:03 18:38:09 31° 291° (WNW) 18:42:10
CUTE-I 31 Jul 18:39:49 18:45:12 86° 256° (WSW) 18:50:37 437.470
HO-68 31 Jul 18:40:07 18:42:44 13° 50° (NE) 18:45:44 435.675
SO-50 31 Jul 18:46:14 18:51:14 83° 58° (ENE) 18:56:06 436.795
CUBESAT XI-V 31 Jul 18:48:54 18:53:05 34° 96° (E) 18:57:18 437.345
BRITE-PL 31 Jul 18:57:59 19:00:39 17° 67° (ENE) 19:03:24 437.365/2234.400
STRAND 1 31 Jul 19:03:28 19:06:20 15° 89° (E) 19:09:26 437.568
GONETS M04 31 Jul 19:09:38 19:17:30 39° 273° (W) 19:25:14
GOMX 1 31 Jul 19:12:52 19:14:52 14° 65° (ENE) 19:17:01 467.674
Cosmos 2499 31 Jul 19:20:42 19:29:27 74° 80° (E) 19:38:21 435.465 / 435.565
Cubesat XI-IV 31 Jul 19:24:21 19:29:15 35° 264° (W) 19:34:08 437.490
SEEDS 31 Jul 19:49:17 19:51:19 14° 64° (ENE) 19:53:33 437.485
CUTE 1.7 + AOD 2 31 Jul 19:50:21 19:53:06 17° 66° (ENE) 19:55:59 437.475
VERMONT LUNAR 31 Jul 19:53:08 19:56:08 38° 165° (SSE) 19:59:07 437.305
PCSat 31 Jul 19:55:03 19:59:54 33° 249° (WSW) 20:04:38 145.827
CANX-2 31 Jul 19:58:00 20:01:18 23° 68° (ENE) 20:04:43 2200.000
PHONESAT 2.4 31 Jul 19:58:56 20:00:14 12° 149° (SSE) 20:01:37 2401.200-2431.200
PRISM 31 Jul 20:10:59 20:15:03 57° 101° (E) 20:19:04 437.425
AAUSAT CUBESAT 2 31 Jul 20:16:27 20:19:13 18° 66° (ENE) 20:22:06 437.432
HO-68 31 Jul 20:22:13 20:29:11 60° 69° (ENE) 20:36:13 435.675
CUTE-I 31 Jul 20:24:55 20:26:12 11° 275° (W) 20:27:06 437.470
CUBESAT XI-V 31 Jul 20:26:37 20:30:24 25° 293° (WNW) 20:34:05 437.345
SO-50 31 Jul 20:28:52 20:31:10 13° 252° (WSW) 20:33:11 436.795
BRITE-PL 31 Jul 20:34:42 20:38:58 45° 261° (W) 20:43:01 437.365/2234.400
DOVE 4 31 Jul 20:39:41 20:43:49 69° 76° (ENE) 20:47:58 437.250
STRAND 1 31 Jul 20:41:01 20:46:05 65° 287° (WNW) 20:51:07 437.568
GOMX 1 31 Jul 20:48:29 20:52:39 55° 260° (W) 20:56:45 467.674
ZACube-1 31 Jul 20:53:22 20:55:08 13° 63° (ENE) 20:57:06 437.345
CINEMA 3 31 Jul 20:53:25 20:57:19 41° 72° (ENE) 21:01:19 145.822/145.860
COMPASS 1 31 Jul 21:08:18 21:12:30 75° 76° (ENE) 21:16:44 437.405
FUNcube-1 31 Jul 21:13:54 21:16:55 20° 66° (ENE) 21:20:06 145.935
UWE-3 31 Jul 21:14:03 21:17:31 26° 68° (ENE) 21:21:08 435.000/436.395/437.385
Cosmos 2499 31 Jul 21:15:03 21:21:56 26° 277° (W) 21:28:35 435.465 / 435.565
SEEDS 31 Jul 21:22:28 21:26:40 60° 260° (W) 21:30:54 437.485
CUTE 1.7 + AOD 2 31 Jul 21:24:35 21:28:41 45° 262° (W) 21:32:50 437.475
Oscar 11 31 Jul 21:26:30 21:30:37 45° 72° (ENE) 21:34:49 145.826/435.025
ISS 31 Jul 21:26:36 21:29:31 32° 138° (SE) 21:32:29 145.825
CUBEBUG 2 31 Jul 21:27:51 21:31:50 46° 72° (ENE) 21:35:57 437.445
VERMONT LUNAR 31 Jul 21:29:31 21:32:40 58° 182° (S) 21:35:48 437.305
CANX-2 31 Jul 21:33:11 21:37:04 33° 264° (W) 21:40:58 2200.000
PHONESAT 2.4 31 Jul 21:34:23 21:37:40 37° 163° (SSE) 21:40:57 2401.200-2431.200
RS-15 31 Jul 21:35:16 21:45:30 51° 112° (ESE) 21:56:13 29.354- 29.394
AUBIESAT-1 31 Jul 21:39:44 21:40:34 11° 90° (E) 21:41:42 437.475
DELFI C3 31 Jul 21:40:21 21:44:10 42° 73° (ENE) 21:48:03 145.870
HUMSAT D 31 Jul 21:43:27 21:46:12 18° 66° (ENE) 21:49:07 437.325/437.525
PRISM 31 Jul 21:47:58 21:50:03 13° 297° (WNW) 21:51:59 437.425
AAUSAT CUBESAT 2 31 Jul 21:50:30 21:54:31 43° 262° (W) 21:58:33 437.432
DX 1 31 Jul 21:56:18 21:59:19 19° 65° (ENE) 22:02:27 434.975-435.025
VELOX 1 31 Jul 22:09:16 22:11:48 16° 64° (ENE) 22:14:31 145.980
HO-68 31 Jul 22:11:28 22:17:25 27° 268° (W) 22:23:12 435.675
ESTCUBE 1 31 Jul 22:19:08 22:21:29 15° 63° (ENE) 22:24:02 437.505/2401.250
ZACube-1 31 Jul 22:26:50 22:30:59 64° 259° (W) 22:35:15 437.345
CINEMA 3 31 Jul 22:32:08 22:34:49 16° 270° (W) 22:37:24 145.822/145.860
TIGRISAT 31 Jul 22:37:34 22:40:13 15° 89° (E) 22:43:04 435.000
ANTELSAT 31 Jul 22:38:58 22:41:51 17° 90° (E) 22:44:56 437.575/2403.000
M-CUBED/EXP-1 PRIME 31 Jul 22:41:21 22:46:04 55° 104° (ESE) 22:50:42 437.505
FUNcube-1 31 Jul 22:49:07 22:53:01 37° 263° (W) 22:56:59 145.935
UWE-3 31 Jul 22:50:24 22:54:00 27° 266° (W) 22:57:39 435.000/436.395/437.385
ISS 31 Jul 23:02:52 23:05:55 37° 335° (NNW) 23:09:00 145.825
UKube-1 31 Jul 23:03:28 23:07:48 88° 76° (ENE) 23:12:08 .
Oscar 11 31 Jul 23:04:12 23:07:06 17° 270° (W) 23:09:50 145.826/435.025
AISAT 31 Jul 23:04:26 23:08:45 58° 74° (ENE) 23:13:05 437.250
VERMONT LUNAR 31 Jul 23:06:18 23:09:10 31° 198° (SSW) 23:12:01 437.305
CUBEBUG 2 31 Jul 23:06:20 23:08:53 15° 271° (W) 23:11:18 437.445
AUBIESAT-1 31 Jul 23:11:11 23:15:59 88° 295° (WNW) 23:20:38 437.475
50 SAT 31 Jul 23:11:35 23:15:27 79° 76° (ENE) 23:19:24 437.505
PHONESAT 2.4 31 Jul 23:11:56 23:15:25 61° 180° (S) 23:18:53 2401.200-2431.200
Cosmos 2491 31 Jul 23:14:24 23:22:33 43° 72° (ENE) 23:30:46 435.465 / 435.565
DELFI C3 31 Jul 23:16:53 23:19:29 16° 269° (W) 23:21:57 145.870
HUMSAT D 31 Jul 23:17:44 23:21:39 41° 262° (W) 23:25:39 437.325/437.525
CUBEBUG 1 31 Jul 23:20:11 23:24:21 47° 73° (ENE) 23:28:33 437.445
UNISAT 6 31 Jul 23:29:13 23:33:48 53° 99° (E) 23:38:25 437.425
POLYITAN 1 31 Jul 23:30:39 23:33:50 20° 93° (E) 23:37:07 437.675
DX 1 31 Jul 23:31:10 23:35:18 42° 261° (W) 23:39:26 434.975-435.025
AIST 1 31 Jul 23:35:31 23:39:46 63° 80° (E) 23:43:59
YUBILEINY 31 Jul 23:38:49 23:45:11 24° 82° (E) 23:51:55 435.215
VELOX 1 31 Jul 23:43:38 23:47:58 55° 259° (W) 23:52:19 145.980
BEESAT 2 31 Jul 23:46:34 23:50:05 29° 115° (ESE) 23:53:42 435.950
RS-15 31 Jul 23:47:19 23:57:59 53° 317° (NW) 00:09:04 29.354- 29.394
POPSAT HIP 1 31 Jul 23:47:29 23:51:14 30° 96° (E) 23:55:02 437.405
ESTCUBE 1 31 Jul 23:53:23 23:57:54 64° 259° (W) 00:02:26 437.505/2401.250
BUGSAT 1 31 Jul 23:54:18 23:57:24 21° 94° (E) 00:00:37 437.445
QB50P2 31 Jul 23:54:53 23:58:52 37° 97° (E) 00:02:52 145.880/145.840
SPROUT 31 Jul 23:58:06 00:01:58 35° 71° (ENE) 00:05:54 437.525
TISAT 1 01 Aug 00:11:44 00:15:24 31° 70° (ENE) 00:19:08 437.305
TIGRISAT 01 Aug 00:12:46 00:17:22 58° 286° (WNW) 00:22:00 435.000
ANTELSAT 01 Aug 00:14:24 00:18:59 54° 287° (WNW) 00:23:35 437.575/2403.000
M-CUBED/EXP-1 PRIME 01 Aug 00:16:55 00:20:27 20° 301° (WNW) 00:23:51 437.505
DUCHIFAT 1 01 Aug 00:19:46 00:24:00 67° 101° (E) 00:28:13 145.980
QB50P1 01 Aug 00:22:42 00:26:58 76° 102° (ESE) 00:31:14 145.935-145.965
NANOSAT C BR1 01 Aug 00:24:06 00:28:22 78° 103° (ESE) 00:32:37 145.865
BEESAT 3 01 Aug 00:26:24 00:30:29 82° 303° (WNW) 00:34:36 437.485
BEESAT 01 Aug 00:39:02 00:41:10 13° 61° (ENE) 00:43:32 436.000
ISS 01 Aug 00:40:44 00:43:01 17° 355° (N) 00:45:18 145.825
AISAT 01 Aug 00:43:31 00:45:46 13° 271° (W) 00:47:49 437.250
AUBIESAT-1 01 Aug 00:47:53 00:50:00 13° 305° (NW) 00:51:54 437.475
PHONESAT 2.4 01 Aug 00:49:53 00:53:11 38° 197° (SSW) 00:56:27 2401.200-2431.200
SWISSCUBE 01 Aug 00:57:54 01:01:28 22° 65° (ENE) 01:05:09 437.505
CUBEBUG 1 01 Aug 00:58:12 01:01:00 16° 269° (W) 01:03:39 437.445
POLYITAN 1 01 Aug 01:05:55 01:09:52 36° 289° (WNW) 01:13:46 437.675
UNISAT 6 01 Aug 01:07:00 01:10:13 18° 295° (WNW) 01:13:19 437.425
Cosmos 2491 01 Aug 01:11:24 01:19:29 43° 272° (W) 01:27:27 435.465 / 435.565
AIST 1 01 Aug 01:15:50 01:16:54 11° 275° (W) 01:17:44
AIST 2 01 Aug 01:16:11 01:20:21 58° 120° (ESE) 01:24:33 435.215
ITUPSAT 1 01 Aug 01:18:03 01:22:11 30° 68° (ENE) 01:26:23 437.325
POPSAT HIP 1 01 Aug 01:23:30 01:27:01 25° 292° (WNW) 01:30:26 437.405
BEESAT 2 01 Aug 01:24:26 01:28:07 30° 313° (NW) 01:31:46 435.950
BUGSAT 1 01 Aug 01:29:19 01:32:56 31° 290° (WNW) 01:36:32 437.445
QB50P2 01 Aug 01:31:20 01:34:32 20° 293° (WNW) 01:37:38 145.880/145.840
YUBILEINY 01 Aug 01:32:33 01:41:15 73° 281° (W) 01:50:03 435.215
SPROUT 01 Aug 01:34:56 01:38:11 20° 268° (W) 01:41:21 437.525
TISAT 1 01 Aug 01:47:53 01:51:14 22° 267° (W) 01:54:30 437.305
Cosmos 2504 01 Aug 01:49:29 01:53:29 17° 78° (ENE) 01:58:02 435.465 / 435.565
DUCHIFAT 1 01 Aug 01:57:29 01:59:19 12° 297° (WNW) 02:00:58 145.980
QB50P1 01 Aug 02:00:57 02:02:18 11° 298° (WNW) 02:03:25 145.935-145.965
NANOSAT C BR1 01 Aug 02:02:26 02:03:39 11° 298° (WNW) 02:04:38 145.865
RS-15 01 Aug 02:05:03 02:13:55 25° 348° (NNW) 02:23:00 29.354- 29.394
BEESAT 3 01 Aug 02:07:14 02:09:07 13° 324° (NW) 02:10:54 437.485
BEESAT 01 Aug 02:13:38 02:18:27 78° 258° (WSW) 02:23:16 436.000
ITAMSAT 1 01 Aug 02:14:37 02:15:25 10° 86° (E) 02:16:35 435.822/435.867
ISS 01 Aug 02:17:38 02:20:17 22° 15° (NNE) 02:22:56 145.825
O/OREOS (USA 219) 01 Aug 02:20:11 02:24:40 86° 296° (WNW) 02:29:12 437.305
PHONESAT 2.4 01 Aug 02:29:08 02:30:36 12° 211° (SSW) 02:31:59 2401.200-2431.200
Oscar 19 01 Aug 02:30:07 02:35:15 61° 101° (E) 02:40:23 437.125/150
JAS-2 01 Aug 02:32:33 02:35:04 12° 80° (E) 02:38:14 435.910
SWISSCUBE 01 Aug 02:34:27 02:39:03 44° 261° (W) 02:43:40 437.505
STARS 01 Aug 02:45:10 02:48:35 23° 67° (ENE) 02:52:07 437.465
ITUPSAT 1 01 Aug 02:55:44 03:00:01 31° 264° (W) 03:04:17 437.325
AIST 2 01 Aug 02:56:10 02:59:17 19° 319° (NW) 03:02:21 435.215
KKS-1 01 Aug 03:10:15 03:14:39 71° 74° (ENE) 03:19:04 437.445
Gurwin Techsat 1B 01 Aug 03:27:00 03:32:16 62° 101° (E) 03:37:32 435.225
YUBILEINY 01 Aug 03:35:03 03:40:06 15° 305° (NW) 03:44:39 435.215
Cosmos 2504 01 Aug 03:37:30 03:44:37 86° 278° (W) 03:52:20 435.465 / 435.565
ITAMSAT 1 01 Aug 03:50:34 03:55:47 89° 100° (E) 04:00:58 435.822/435.867
ISS 01 Aug 03:53:47 03:57:04 88° 33° (NNE) 04:00:20 145.825
MOZHAYETS 4 01 Aug 03:59:39 04:03:36 29° 68° (ENE) 04:07:38
O/OREOS (USA 219) 01 Aug 04:03:25 04:04:55 11° 313° (NW) 04:06:12 437.305
HORYU 2 01 Aug 04:07:48 04:10:52 18° 91° (E) 04:14:04 437.375
Oscar 19 01 Aug 04:10:35 04:14:11 19° 297° (WNW) 04:17:38 437.125/150
AO-7 01 Aug 04:10:45 04:17:39 29° 93° (E) 04:24:43 29.400- 29.500
JAS-2 01 Aug 04:13:54 04:21:42 66° 100° (E) 04:29:25 435.910
STARS 01 Aug 04:20:54 04:24:54 33° 264° (W) 04:28:51 437.465
RS-15 01 Aug 04:21:39 04:31:16 30° 23° (NNE) 04:41:26 29.354- 29.394
KKS-1 01 Aug 04:50:26 04:51:51 11° 272° (W) 04:53:00 437.445
DANDE 01 Aug 04:55:29 04:58:39 46° 99° (E) 05:01:20 436.750
Gurwin Techsat 1B 01 Aug 05:08:06 05:11:49 19° 298° (WNW) 05:15:22 435.225
CUSAT 1 01 Aug 05:17:14 05:19:55 35° 282° (WNW) 05:22:21 437.405
ISS 01 Aug 05:31:56 05:33:05 11° 229° (SW) 05:34:06 145.825
ITAMSAT 1 01 Aug 05:32:10 05:34:38 13° 301° (WNW) 05:36:51 435.822/435.867
Cosmos 2504 01 Aug 05:33:52 05:38:22 16° 302° (WNW) 05:42:39 435.465 / 435.565
MOZHAYETS 4 01 Aug 05:36:40 05:40:46 30° 265° (W) 05:44:51
HORYU 2 01 Aug 05:43:27 05:47:46 44° 289° (WNW) 05:52:02 437.375
CUBESAT XI-V 01 Aug 05:52:53 05:57:10 37° 70° (ENE) 06:01:29 437.345
JAS-2 01 Aug 05:59:38 06:06:14 30° 298° (WNW) 06:12:41 435.910
AO-7 01 Aug 06:02:50 06:11:05 65° 293° (WNW) 06:19:14 29.400- 29.500
Cubesat XI-IV 01 Aug 06:03:24 06:04:33 11° 85° (E) 06:06:04 437.490
GONETS M04 01 Aug 06:14:13 06:22:32 54° 91° (E) 06:30:55
STRAND 1 01 Aug 06:19:40 06:23:47 26° 65° (ENE) 06:28:01 437.568
RS-15 01 Aug 06:34:37 06:46:21 71° 51° (NE) 06:58:33 29.354- 29.394
CUTE-I 01 Aug 06:56:28 07:01:19 36° 96° (E) 07:06:12 437.470
PRISM 01 Aug 07:01:27 07:05:27 46° 72° (ENE) 07:09:29 437.425
BEESAT 3 01 Aug 07:08:12 07:09:34 12° 35° (NE) 07:11:05 437.485
CUBESAT XI-V 01 Aug 07:30:56 07:34:43 23° 267° (W) 07:38:25 437.345
Cubesat XI-IV 01 Aug 07:40:11 07:45:33 88° 102° (ESE) 07:50:53 437.490
AO-7 01 Aug 07:57:39 08:02:28 16° 313° (NW) 08:06:52 29.400- 29.500
STRAND 1 01 Aug 07:57:56 08:02:48 42° 262° (W) 08:07:40 437.568
Cosmos 2499 01 Aug 07:58:17 08:05:24 56° 91° (E) 08:13:11 435.465 / 435.565
BEESAT 2 01 Aug 08:04:39 08:08:04 25° 45° (NE) 08:11:30 435.950
GONETS M04 01 Aug 08:11:57 08:19:47 35° 292° (WNW) 08:27:30
AUBIESAT-1 01 Aug 08:26:44 08:29:06 15° 57° (ENE) 08:31:42 437.475
CUTE-I 01 Aug 08:36:41 08:41:20 31° 293° (WNW) 08:45:55 437.470
BRITE-PL 01 Aug 08:37:33 08:41:46 47° 99° (E) 08:46:18 437.365/2234.400
DOVE 4 01 Aug 08:37:54 08:41:06 19° 92° (E) 08:44:33 437.250
PRISM 01 Aug 08:38:35 08:41:10 15° 269° (W) 08:43:37 437.425
BEESAT 3 01 Aug 08:44:13 08:48:17 75° 55° (NE) 08:52:16 437.485
RS-15 01 Aug 08:47:46 08:58:15 37° 252° (WSW) 09:08:42 29.354- 29.394
GOMX 1 01 Aug 08:48:32 08:52:44 37° 97° (E) 08:57:12 467.674
CINEMA 3 01 Aug 08:49:22 08:50:21 11° 87° (E) 08:51:39 145.822/145.860
COMPASS 1 01 Aug 08:53:10 08:54:28 11° 87° (E) 08:56:01 437.405
PCSat 01 Aug 08:54:27 08:58:59 28° 110° (ESE) 09:03:37 145.827
SO-50 01 Aug 09:02:07 09:05:45 23° 112° (ESE) 09:09:36 436.795
SEEDS 01 Aug 09:06:38 09:09:53 21° 92° (E) 09:13:11 437.485
CUTE 1.7 + AOD 2 01 Aug 09:09:10 09:12:52 28° 94° (E) 09:16:36 437.475
CANX-2 01 Aug 09:17:20 09:21:22 38° 97° (E) 09:25:23 2200.000
CUBEBUG 2 01 Aug 09:20:37 09:21:15 10° 86° (E) 09:22:11 437.445
Cubesat XI-IV 01 Aug 09:22:16 09:24:59 14° 301° (WNW) 09:27:27 437.490
M-CUBED/EXP-1 PRIME 01 Aug 09:29:51 09:33:53 75° 70° (ENE) 09:38:18 437.505
AAUSAT CUBESAT 2 01 Aug 09:32:46 09:36:21 27° 95° (E) 09:39:57 437.432
HO-68 01 Aug 09:36:25 09:43:30 58° 101° (ESE) 09:50:34 435.675
AIST 2 01 Aug 09:37:14 09:41:19 47° 51° (NE) 09:45:20 435.215
TIGRISAT 01 Aug 09:37:51 09:40:10 15° 63° (ENE) 09:42:41 435.000
ANTELSAT 01 Aug 09:39:24 09:41:57 16° 64° (ENE) 09:44:42 437.575/2403.000
BEESAT 2 01 Aug 09:42:28 09:46:12 34° 244° (WSW) 09:49:50 435.950
YUBILEINY 01 Aug 09:48:10 09:51:09 12° 51° (NE) 09:54:47 435.215
Cosmos 2499 01 Aug 09:52:39 09:59:08 30° 294° (WNW) 10:05:53 435.465 / 435.565
AUBIESAT-1 01 Aug 09:59:16 10:03:17 61° 255° (WSW) 10:07:39 437.475
DOVE 4 01 Aug 10:14:40 10:19:05 47° 287° (WNW) 10:23:44 437.250
ZACube-1 01 Aug 10:14:51 10:18:31 24° 93° (E) 10:22:15 437.345
BRITE-PL 01 Aug 10:17:06 10:20:05 18° 293° (WNW) 10:23:03 437.365/2234.400
CINEMA 3 01 Aug 10:23:27 10:28:09 82° 283° (WNW) 10:33:01 145.822/145.860
POLYITAN 1 01 Aug 10:24:57 10:27:44 18° 66° (ENE) 10:30:39 437.675
BEESAT 3 01 Aug 10:25:05 10:25:40 10° 251° (WSW) 10:26:02 437.485
COMPASS 1 01 Aug 10:26:27 10:30:38 63° 285° (WNW) 10:34:47 437.405
GOMX 1 01 Aug 10:27:08 10:30:44 23° 291° (WNW) 10:34:24 467.674
UNISAT 6 01 Aug 10:28:57 10:33:08 49° 73° (ENE) 10:37:28 437.425
FUNcube-1 01 Aug 10:36:07 10:40:21 38° 97° (E) 10:44:38 145.935
PCSat 01 Aug 10:37:03 10:42:13 44° 307° (NW) 10:47:25 145.827
UWE-3 01 Aug 10:38:17 10:42:48 54° 99° (E) 10:47:23 435.000/436.395/437.385
POPSAT HIP 1 01 Aug 10:41:15 10:44:40 25° 69° (ENE) 10:48:10 437.405
SO-50 01 Aug 10:41:22 10:46:00 48° 310° (NW) 10:50:48 436.795
SEEDS 01 Aug 10:41:52 10:45:46 34° 289° (WNW) 10:49:35 437.485
CUTE 1.7 + AOD 2 01 Aug 10:45:05 10:48:44 27° 291° (WNW) 10:52:17 437.475
BUGSAT 1 01 Aug 10:45:43 10:48:22 17° 66° (ENE) 10:51:06 437.445
QB50P2 01 Aug 10:48:37 10:52:19 31° 70° (ENE) 10:56:05 145.880/145.840
Oscar 11 01 Aug 10:48:49 10:53:13 85° 106° (ESE) 10:57:34 145.826/435.025
O/OREOS (USA 219) 01 Aug 10:50:41 10:54:20 23° 55° (NE) 10:58:04 437.305
UKube-1 01 Aug 10:51:46 10:53:53 14° 90° (E) 10:56:11 .
DELFI C3 01 Aug 10:53:13 10:57:16 65° 101° (E) 11:01:17 145.870
CANX-2 01 Aug 10:53:50 10:57:04 20° 293° (WNW) 11:00:09 2200.000
CUBEBUG 2 01 Aug 10:53:55 10:58:35 83° 284° (WNW) 11:03:19 437.445
AISAT 01 Aug 10:57:17 10:57:46 10° 87° (E) 10:58:33 437.250
HUMSAT D 01 Aug 11:00:50 11:04:36 29° 95° (E) 11:08:25 437.325/437.525
AAUSAT CUBESAT 2 01 Aug 11:08:20 11:11:53 26° 291° (WNW) 11:15:22 437.432
TIGRISAT 01 Aug 11:12:11 11:16:27 59° 260° (W) 11:20:52 435.000
DUCHIFAT 1 01 Aug 11:12:38 11:16:42 53° 73° (ENE) 11:20:48 145.980
ANTELSAT 01 Aug 11:14:03 11:18:19 54° 261° (W) 11:22:42 437.575/2403.000
QB50P1 01 Aug 11:15:55 11:20:03 61° 74° (ENE) 11:24:13 145.935-145.965
AIST 2 01 Aug 11:16:42 11:19:33 17° 248° (WSW) 11:22:14 435.215
NANOSAT C BR1 01 Aug 11:17:06 11:21:14 62° 74° (ENE) 11:25:23 145.865
DX 1 01 Aug 11:18:45 11:22:32 29° 96° (E) 11:26:21 434.975-435.025
HO-68 01 Aug 11:24:47 11:30:53 30° 299° (WNW) 11:36:49 435.675
VELOX 1 01 Aug 11:33:38 11:37:17 25° 94° (E) 11:40:59 145.980
YUBILEINY 01 Aug 11:41:44 11:50:27 60° 76° (ENE) 11:59:10 435.215
ESTCUBE 1 01 Aug 11:45:48 11:49:28 25° 94° (E) 11:53:12 437.505/2401.250
ZACube-1 01 Aug 11:50:47 11:54:57 35° 289° (WNW) 11:59:05 437.345
POLYITAN 1 01 Aug 11:59:21 12:03:21 42° 262° (W) 12:07:22 437.675
CINEMA 3 01 Aug 12:04:06 12:04:44 10° 298° (WNW) 12:05:06 145.822/145.860
AIST 1 01 Aug 12:05:44 12:09:42 36° 92° (E) 12:13:41
UNISAT 6 01 Aug 12:07:32 12:10:17 16° 271° (W) 12:12:54 437.425
Oscar 19 01 Aug 12:11:57 12:14:08 13° 60° (ENE) 12:16:33 437.125/150
FUNcube-1 01 Aug 12:12:53 12:16:28 23° 293° (WNW) 12:19:58 145.935
UWE-3 01 Aug 12:15:55 12:18:58 17° 295° (WNW) 12:21:54 435.000/436.395/437.385
Cosmos 2491 01 Aug 12:16:24 12:24:36 48° 89° (E) 12:32:53 435.465 / 435.565
POPSAT HIP 1 01 Aug 12:16:49 12:20:28 28° 265° (W) 12:24:06 437.405
BUGSAT 1 01 Aug 12:19:45 12:23:34 39° 262° (W) 12:27:23 437.445
50 SAT 01 Aug 12:20:31 12:24:31 75° 284° (WNW) 12:28:29 437.505
QB50P2 01 Aug 12:24:53 12:28:17 23° 267° (W) 12:31:35 145.880/145.840
SO-50 01 Aug 12:26:07 12:27:50 11° 332° (NNW) 12:29:24 436.795
UKube-1 01 Aug 12:26:10 12:30:25 55° 287° (WNW) 12:34:37 .
PCSat 01 Aug 12:26:26 12:27:12 10° 330° (NNW) 12:27:47 145.827
Oscar 11 01 Aug 12:27:54 12:28:47 10° 298° (WNW) 12:29:26 145.826/435.025
O/OREOS (USA 219) 01 Aug 12:29:38 12:33:56 39° 253° (WSW) 12:38:11 437.305
DELFI C3 01 Aug 12:30:18 12:31:51 12° 297° (WNW) 12:33:12 145.870
AISAT 01 Aug 12:30:32 12:34:58 75° 285° (WNW) 12:39:22 437.250
CUBEBUG 2 01 Aug 12:34:14 12:34:37 10° 299° (WNW) 12:34:44 437.445
HUMSAT D 01 Aug 12:36:37 12:40:16 26° 291° (WNW) 12:43:51 437.325/437.525
CUBEBUG 1 01 Aug 12:44:09 12:48:31 87° 102° (ESE) 12:52:51 437.445
DUCHIFAT 1 01 Aug 12:50:47 12:52:54 13° 271° (W) 12:54:49 145.980
QB50P1 01 Aug 12:54:48 12:56:24 12° 272° (W) 12:57:46 145.935-145.965
DX 1 01 Aug 12:55:04 12:58:42 26° 292° (WNW) 13:02:16 434.975-435.025
NANOSAT C BR1 01 Aug 12:56:03 12:57:33 11° 272° (W) 12:58:50 145.865
VELOX 1 01 Aug 13:09:58 13:13:51 31° 291° (WNW) 13:17:41 145.980
Gurwin Techsat 1B 01 Aug 13:11:56 13:14:47 15° 60° (ENE) 13:17:51 435.225
SPROUT 01 Aug 13:19:22 13:23:39 64° 101° (E) 13:27:55 437.525
Cosmos 2504 01 Aug 13:22:12 13:29:40 35° 70° (ENE) 13:37:25 435.465 / 435.565
ESTCUBE 1 01 Aug 13:22:22 13:26:24 32° 290° (WNW) 13:30:21 437.505/2401.250
AO-7 01 Aug 13:25:43 13:27:13 11° 40° (NE) 13:29:12 29.400- 29.500
TISAT 1 01 Aug 13:30:23 13:34:30 50° 100° (E) 13:38:37 437.305
ITAMSAT 1 01 Aug 13:31:47 13:35:26 20° 63° (ENE) 13:39:14 435.822/435.867
YUBILEINY 01 Aug 13:39:21 13:46:49 31° 276° (W) 13:54:03 435.215
AIST 1 01 Aug 13:44:14 13:47:30 20° 290° (WNW) 13:50:39
Oscar 19 01 Aug 13:47:42 13:52:50 88° 261° (W) 13:58:01 437.125/150
Cosmos 2491 01 Aug 14:13:33 14:21:41 39° 290° (WNW) 14:29:41 435.465 / 435.565
BEESAT 01 Aug 14:13:40 14:17:35 25° 94° (E) 14:21:32 436.000
JAS-2 01 Aug 14:27:31 14:32:47 30° 62° (ENE) 14:38:44 435.910
SWISSCUBE 01 Aug 14:33:50 14:38:24 43° 99° (E) 14:42:56 437.505
Gurwin Techsat 1B 01 Aug 14:48:51 14:54:10 80° 257° (WSW) 14:59:32 435.225
ITUPSAT 1 01 Aug 14:54:50 14:59:36 63° 101° (E) 15:04:19 437.325
SPROUT 01 Aug 14:57:09 14:59:16 13° 297° (WNW) 15:01:10 437.525
KKS-1 01 Aug 15:02:22 15:04:17 13° 89° (E) 15:06:26 437.445
HORYU 2 01 Aug 15:07:00 15:10:08 20° 65° (ENE) 15:13:25 437.375
TISAT 1 01 Aug 15:07:20 15:09:53 15° 295° (WNW) 15:12:19 437.305
ITAMSAT 1 01 Aug 15:09:25 15:14:33 57° 259° (W) 15:19:42 435.822/435.867
AO-7 01 Aug 15:10:18 15:18:01 44° 62° (ENE) 15:25:50 29.400- 29.500
Cosmos 2504 01 Aug 15:14:05 15:22:15 55° 269° (W) 15:30:32 435.465 / 435.565
DANDE 01 Aug 15:31:10 15:34:41 40° 79° (ENE) 15:39:19 436.750
Oscar 19 01 Aug 15:32:27 15:33:04 10° 275° (W) 15:33:19 437.125/150
CUSAT 1 01 Aug 15:48:35 15:52:44 79° 261° (W) 15:58:17 437.405
BEESAT 01 Aug 15:51:08 15:55:31 36° 291° (WNW) 15:59:50 436.000
STARS 01 Aug 16:09:20 16:13:30 40° 98° (E) 16:17:41 437.465
JAS-2 01 Aug 16:11:38 16:17:32 50° 263° (W) 16:24:13 435.910
SWISSCUBE 01 Aug 16:12:19 16:16:00 22° 295° (WNW) 16:19:33 437.505
GONETS M04 01 Aug 16:23:42 16:30:44 28° 64° (ENE) 16:38:03
ITUPSAT 1 01 Aug 16:34:05 16:37:02 16° 298° (WNW) 16:39:48 437.325
KKS-1 01 Aug 16:36:59 16:41:24 62° 286° (WNW) 16:45:49 437.445
HORYU 2 01 Aug 16:42:15 16:46:30 43° 261° (W) 16:50:47 437.375
